Vorticity
-3 -9 -7 13 6 6 8 7 7 6 6 7 5 6 8 10 3 3 3 3 5 4 4 5 6 6 8 8 7 7 6 7 8 7 6 7 7 6 6 6 6 6 6
5 -1 2 1 14 5 7 7 7 7 6 8 5 7 4 3 5 5 1 4 6 4 4 6 7 9 9 8 8 7 7 7 8 8 6 4 4 4 4 5 5 2 4
4 -1 -0 2 11 5 7 7 7 7 7 7 9 7 1 -0 5 3 2 4 5 3 4 7 8 8 7 8 8 7 6 5 4 5 5 5 4 5 5 6 4 5 5
5 9 14 4 3 9 7 6 7 7 7 7 6 10 2 -0 5 2 3 4 4 4 5 7 7 8 8 6 5 4 4 5 4 4 5 5 5 5 5 4 5 4 5
5 17 18 15 5 5 7 6 7 7 8 7 7 10 4 1 3 2 2 5 3 4 6 7 7 7 6 4 4 5 5 4 4 5 5 4 4 4 4 4 4 4 4
-11 -15 -16 20 9 5 6 6 6 7 8 8 7 8 5 5 4 2 2 7 3 4 7 7 7 6 5 4 5 5 4 4 3 4 4 3 4 4 4 4 4 4 5
-4 -8 -3 0 18 9 7 6 6 7 8 10 8 7 5 3 4 3 4 5 3 6 7 7 5 4 4 5 5 4 4 4 5 4 4 3 3 3 3 4 4 4 4
19 17 3 11 7 12 8 6 6 7 8 11 11 11 5 1 4 4 6 3 3 7 6 5 4 4 5 5 4 4 5 5 5 5 3 3 3 4 4 4 4 3 5
19 -3 8 13 11 9 6 8 7 12 10 7 11 14 5 4 5 4 6 4 5 6 5 5 4 5 4 4 4 5 4 5 4 5 4 4 4 4 4 4 5 4 4
8 22 -1 12 6 -2 5 6 8 8 8 11 9 4 2 3 5 4 6 3 6 6 6 5 4 4 4 4 4 4 5 5 4 5 5 5 5 4 4 4 4 4 5
10 8 6 5 10 -12 3 -0 10 5 8 6 11 4 3 5 4 5 5 5 6 6 5 5 4 3 3 3 4 4 5 5 6 7 5 6 5 5 5 5 5 5 5
11 11 6 1 2 11 1 8 6 4 7 5 5 3 3 3 4 6 5 5 6 5 4 4 3 3 3 4 4 5 5 6 7 7 5 5 5 5 5 5 5 5 5
1 -4 17 -3 -20 -9 24 1 11 6 8 9 5 2 7 2 2 5 4 5 6 5 5 4 3 3 3 4 4 5 6 7 6 6 5 5 5 5 5 5 5 5 5
9 10 -6 1 14 16 -31 48 4 3 3 9 4 4 10 10 7 4 6 7 7 5 4 2 2 3 4 4 5 7 6 6 6 6 5 4 5 6 6 5 5 5 6
1 35 -4 -5 -4 42 -22 41 1 8 0 7 3 12 -10 5 6 8 6 8 5 4 3 2 3 3 4 5 7 6 6 6 6 5 5 5 6 5 6 6 6 5 6
14 -25 30 1 -1 -2 44 -18 12 16 -11 18 -3 30 -16 30 8 4 6 4 4 4 2 3 2 4 5 7 7 7 6 5 5 6 6 5 6 6 7 6 5 6 6
9 35 6 15 10 9 8 34 22 12 6 -17 20 8 21 13 4 4 7 5 5 2 3 2 3 4 5 7 8 6 5 5 5 5 5 6 7 7 6 7 7 8 7
18 -15 28 6 9 28 61 -14 -25 14 14 5 -5 9 -27 3 8 6 7 6 4 2 1 1 2 3 6 5 6 5 4 4 5 5 5 5 6 6 6 7 7 5 6
19 28 -11 1 1 40 -16 39 47 13 8 14 8 8 9 8 9 9 7 5 2 2 1 1 2 4 5 5 6 4 3 2 5 4 5 6 4 5 6 6 6 3 1
6 22 15 11 10 22 -11 -15 25 13 18 15 11 11 11 17 8 8 5 3 2 1 1 2 3 4 5 6 5 6 6 4 4 4 4 5 5 6 6 4 4 1 1
-10 -5 23 5 11 7 73 -17 13 -1 21 7 17 17 18 11 8 5 4 2 2 1 2 2 3 2 4 3 4 6 7 7 5 5 4 5 6 3 4 3 2 1 -1
11 19 16 17 12 -19 22 2 41 28 25 15 4 17 12 8 7 6 4 4 2 2 2 4 4 2 4 4 3 1 4 7 8 7 7 7 6 7 5 5 4 3 4
-9 21 17 20 -16 -8 21 17 36 -12 -19 -4 12 2 12 12 11 6 6 4 3 3 3 3 4 8 8 5 3 5 13 0 -6 -4 18 11 10 9 6 5 8 7 -0
8 20 -17 13 31 35 1 25 4 14 33 4 5 12 6 8 2 2 6 6 7 10 6 1 6 3 -3 3 9 11 4 -11 12 11 -8 -5 -19 -5 -12 -1 -9 -6 2
5 4 16 -7 24 20 14 31 -3 4 7 9 8 7 12 8 15 12 13 10 6 -1 7 -8 7 3 19 1 -10 12 -7 -2 1 32 11 18 30 -1 12 3 -5 -7 15
41 61 22 21 5 9 -0 25 4 38 -15 -7 4 2 31 13 6 9 4 -5 -1 14 -8 0 -11 9 -13 1 2 -0 37 -0 7 21 0 10 2 8 5 -1 13 16 9
Height
3152 3154 3155 3157 3157 3158 3159 3159 3160 3161 3162 3163 3164 3165 3166 3167 3169 3170 3172 3172 3173 3173 3173 3173 3173 3173 3172 3172 3172 3172 3172 3172 3173 3172 3172 3172 3173 3173 3172 3172 3172 3172 3171
3152 3153 3154 3156 3157 3156 3157 3158 3159 3160 3161 3162 3163 3165 3167 3168 3169 3170 3172 3173 3173 3173 3173 3173 3173 3173 3173 3173 3173 3173 3173 3174 3174 3174 3174 3174 3174 3174 3174 3174 3174 3173 3172
3149 3151 3152 3154 3156 3155 3155 3157 3157 3158 3160 3161 3162 3164 3166 3167 3169 3170 3172 3173 3173 3173 3173 3173 3173 3174 3173 3174 3174 3174 3175 3175 3176 3176 3176 3176 3176 3176 3175 3175 3174 3174 3173
3146 3149 3150 3151 3153 3155 3154 3155 3156 3157 3158 3160 3162 3163 3165 3167 3169 3170 3171 3172 3173 3173 3173 3173 3174 3174 3174 3175 3175 3176 3176 3177 3177 3178 3178 3178 3177 3177 3177 3176 3175 3175 3174
3144 3146 3147 3149 3150 3152 3152 3153 3154 3155 3157 3158 3160 3162 3165 3167 3168 3170 3171 3173 3173 3173 3173 3173 3174 3175 3175 3176 3176 3177 3178 3178 3178 3179 3179 3179 3179 3178 3178 3177 3176 3175 3174
3141 3144 3145 3148 3149 3150 3150 3151 3152 3153 3154 3156 3159 3161 3163 3165 3168 3169 3170 3172 3173 3173 3174 3174 3174 3175 3176 3176 3177 3178 3179 3180 3179 3179 3179 3179 3179 3179 3178 3177 3177 3176 3175
3139 3141 3142 3144 3146 3147 3147 3148 3150 3151 3152 3155 3156 3159 3161 3164 3166 3168 3169 3171 3172 3173 3174 3174 3175 3175 3176 3177 3178 3178 3179 3181 3180 3180 3180 3180 3180 3180 3179 3178 3178 3177 3176
3134 3137 3138 3140 3142 3144 3145 3146 3147 3149 3150 3152 3154 3157 3160 3162 3164 3166 3168 3170 3172 3173 3174 3174 3175 3176 3176 3177 3178 3179 3179 3180 3181 3181 3180 3180 3180 3180 3179 3178 3177 3176 3175
3128 3131 3134 3135 3138 3139 3142 3143 3145 3147 3149 3150 3153 3155 3157 3160 3163 3165 3167 3169 3171 3172 3174 3174 3175 3176 3177 3177 3178 3179 3179 3180 3181 3180 3180 3180 3180 3179 3179 3178 3178 3176 3175
3121 3124 3128 3130 3131 3134 3137 3140 3142 3145 3146 3149 3151 3153 3155 3158 3161 3164 3166 3167 3169 3171 3173 3174 3175 3176 3177 3177 3178 3178 3179 3179 3180 3179 3180 3180 3179 3179 3179 3178 3178 3176 3175
3117 3119 3123 3125 3128 3131 3132 3133 3138 3143 3144 3146 3148 3150 3153 3156 3159 3161 3164 3166 3168 3170 3171 3173 3175 3176 3177 3177 3178 3178 3178 3178 3179 3179 3179 3178 3178 3178 3178 3177 3176 3175 3174
3114 3114 3117 3119 3122 3125 3126 3129 3131 3139 3141 3144 3146 3149 3152 3153 3156 3159 3161 3164 3166 3168 3170 3172 3174 3175 3176 3177 3177 3177 3177 3178 3178 3178 3178 3178 3178 3177 3177 3176 3174 3173 3172
3107 3109 3112 3115 3109 3116 3120 3124 3127 3131 3138 3141 3143 3146 3149 3151 3153 3156 3159 3162 3164 3167 3169 3171 3173 3174 3175 3176 3176 3176 3176 3176 3177 3177 3177 3176 3176 3175 3175 3174 3173 3172 3171
3103 3104 3107 3109 3110 3113 3107 3117 3120 3123 3131 3136 3139 3141 3145 3145 3150 3153 3157 3160 3163 3166 3167 3170 3172 3173 3174 3175 3175 3175 3175 3175 3176 3176 3176 3175 3175 3174 3174 3173 3171 3170 3169
3093 3096 3099 3102 3104 3104 3106 3110 3112 3117 3123 3130 3134 3137 3139 3144 3147 3151 3155 3159 3162 3163 3166 3168 3171 3172 3173 3173 3174 3173 3173 3173 3174 3175 3174 3174 3173 3173 3172 3172 3170 3169 3168
3086 3090 3093 3095 3097 3098 3102 3102 3105 3112 3117 3121 3128 3130 3135 3138 3143 3147 3152 3156 3159 3163 3165 3167 3168 3170 3171 3172 3172 3172 3172 3172 3172 3172 3173 3172 3172 3171 3170 3169 3168 3167 3166
3079 3081 3086 3088 3091 3087 3088 3098 3102 3107 3112 3115 3122 3126 3128 3136 3141 3145 3150 3154 3158 3161 3163 3165 3166 3168 3169 3169 3170 3171 3171 3171 3170 3169 3170 3170 3170 3169 3168 3167 3166 3165 3164
3072 3076 3079 3080 3083 3078 3080 3090 3092 3099 3105 3111 3117 3122 3129 3133 3139 3143 3147 3151 3155 3158 3160 3162 3163 3164 3165 3166 3167 3168 3168 3168 3168 3167 3167 3167 3167 3166 3165 3164 3163 3162 3161
3066 3069 3074 3075 3075 3074 3077 3078 3090 3092 3102 3109 3116 3119 3126 3132 3137 3141 3144 3148 3151 3154 3157 3159 3160 3161 3162 3162 3163 3164 3164 3164 3164 3164 3164 3164 3164 3163 3162 3161 3161 3159 3157
3063 3063 3066 3067 3070 3071 3072 3083 3087 3089 3099 3106 3112 3117 3123 3128 3132 3136 3140 3143 3147 3151 3153 3155 3157 3158 3158 3159 3159 3160 3160 3160 3160 3161 3161 3161 3161 3160 3158 3158 3157 3156 3154
3056 3059 3062 3063 3065 3066 3068 3080 3085 3088 3094 3101 3107 3113 3118 3123 3127 3131 3135 3139 3143 3147 3149 3151 3152 3154 3154 3155 3155 3156 3157 3156 3156 3157 3157 3156 3156 3156 3154 3154 3153 3152 3150
3049 3052 3055 3058 3060 3063 3066 3073 3079 3085 3089 3094 3104 3111 3114 3118 3123 3127 3132 3135 3139 3142 3144 3146 3148 3150 3149 3148 3149 3150 3150 3151 3152 3153 3152 3151 3151 3151 3150 3149 3149 3147 3145
3043 3046 3046 3051 3054 3059 3065 3069 3077 3083 3087 3091 3098 3103 3109 3114 3119 3124 3128 3132 3135 3137 3139 3141 3143 3144 3144 3144 3143 3144 3143 3143 3145 3144 3148 3146 3145 3146 3145 3143 3143 3142 3139
3039 3041 3044 3047 3050 3054 3060 3066 3073 3077 3081 3085 3092 3099 3106 3112 3118 3121 3124 3126 3129 3131 3132 3135 3135 3137 3137 3138 3138 3137 3137 3138 3135 3138 3139 3139 3139 3139 3138 3137 3135 3134 3133
3035 3038 3042 3045 3047 3053 3058 3064 3069 3078 3082 3084 3089 3094 3098 3104 3109 3114 3117 3119 3122 3124 3124 3127 3126 3128 3130 3128 3131 3130 3130 3129 3129 3128 3128 3130 3130 3130 3129 3129 3127 3128 3128
3028 3032 3036 3044 3048 3053 3059 3063 3069 3076 3081 3085 3090 3094 3094 3100 3104 3109 3111 3111 3112 3115 3117 3121 3121 3122 3123 3121 3122 3121 3122 3123 3123 3122 3123 3124 3123 3123 3123 3123 3122 3120 3119